| time (UTC) | temp F | wind direction | speed MPH | gust MPH | rain 1hr in | rain 24hr in | rain mn in | humidity % | barometer mb |
| 20260505181506 | 84 | 170 | 3.0 | 11.0 | 0.00 | 0.00 | 0.00 | 40 | 1005.4 |
| 20260505180903 | 83 | 230 | 4.0 | 10.0 | 0.00 | 0.00 | 0.00 | 44 | 1005.4 |
| 20260505180007 | 84 | 123 | 3.0 | 9.0 | 0.00 | 0.00 | 0.00 | 40 | 1005.8 |
| 20260505180003 | 84 | 205 | 4.0 | 9.0 | 0.00 | 0.00 | 0.00 | 40 | 1005.6 |
| 20260505175403 | 85 | 199 | 4.0 | 9.0 | 0.00 | 0.00 | 0.00 | 41 | 1005.6 |
| 20260505174505 | 84 | 181 | 3.0 | 9.0 | 0.00 | 0.00 | 0.00 | 42 | 1005.8 |
| 20260505174503 | 84 | 213 | 3.0 | 10.0 | 0.00 | 0.00 | 0.00 | 42 | 1005.6 |
| 20260505173603 | 84 | 202 | 3.0 | 7.0 | 0.00 | 0.00 | 0.00 | 44 | 1005.8 |
| 20260505173016 | 83 | 198 | 2.0 | 7.0 | 0.00 | 0.00 | 0.00 | 44 | 1006.0 |
| 20260505172703 | 84 | 194 | 4.0 | 9.0 | 0.00 | 0.00 | 0.00 | 43 | 1005.8 |
| 20260505172018 | 84 | 191 | 4.0 | 9.0 | 0.00 | 0.00 | 0.00 | 46 | 1006.0 |
| 20260505171506 | 83 | 198 | 3.0 | 8.0 | 0.00 | 0.00 | 0.00 | 45 | 1006.1 |
| 20260505170903 | 83 | 211 | 3.0 | 8.0 | 0.00 | 0.00 | 0.00 | 43 | 1006.0 |
| 20260505170017 | 83 | 210 | 3.0 | 8.0 | 0.00 | 0.00 | 0.00 | 44 | 1006.2 |
| 20260505170003 | 83 | 191 | 3.0 | 8.0 | 0.00 | 0.00 | 0.00 | 44 | 1006.1 |
| 20260505165403 | 83 | 179 | 3.0 | 7.0 | 0.00 | 0.00 | 0.00 | 45 | 1006.0 |
| 20260505164530 | 83 | 165 | 3.0 | 6.0 | 0.00 | 0.00 | 0.00 | 47 | 1006.2 |
| 20260505164503 | 83 | 182 | 3.0 | 6.0 | 0.00 | 0.00 | 0.00 | 46 | 1006.1 |
| 20260505163603 | 82 | 162 | 3.0 | 7.0 | 0.00 | 0.00 | 0.00 | 47 | 1006.1 |
| 20260505163106 | 82 | 139 | 3.0 | 7.0 | 0.00 | 0.00 | 0.00 | 47 | 1006.3 |
| 20260505162703 | 83 | 180 | 3.0 | 6.0 | 0.00 | 0.00 | 0.00 | 45 | 1006.3 |
| 20260505161803 | 82 | 179 | 2.0 | 6.0 | 0.00 | 0.00 | 0.00 | 46 | 1006.4 |
| 20260505161506 | 82 | 234 | 1.0 | 6.0 | 0.00 | 0.00 | 0.00 | 48 | 1006.5 |
| 20260505160903 | 82 | 174 | 3.0 | 6.0 | 0.00 | 0.00 | 0.00 | 46 | 1006.4 |
| 20260505160218 | 82 | 194 | 2.0 | 5.0 | 0.00 | 0.00 | 0.00 | 47 | 1006.6 |
| 20260505153012 | 80 | 232 | 4.0 | 7.0 | 0.00 | 0.00 | 0.00 | 45 | 1007.0 |
| 20260505152703 | 80 | 206 | 2.0 | 6.0 | 0.00 | 0.00 | 0.00 | 49 | 1006.9 |
| 20260505151803 | 80 | 185 | 2.0 | 6.0 | 0.00 | 0.00 | 0.00 | 49 | 1007.0 |
| 20260505151606 | 79 | 179 | 2.0 | 7.0 | 0.00 | 0.00 | 0.00 | 47 | 1007.1 |
| 20260505150903 | 79 | 213 | 2.0 | 7.0 | 0.00 | 0.00 | 0.00 | 50 | 1006.9 |
| 20260505150217 | 79 | 217 | 1.0 | 7.0 | 0.00 | 0.00 | 0.00 | 48 | 1006.8 |
| 20260505150104 | 78 | 233 | 1.0 | 5.0 | 0.00 | 0.00 | 0.00 | 48 | 1007.0 |
| 20260505124717 | 68 | 209 | 1.0 | 6.0 | 0.00 | 0.00 | 0.00 | 67 | 1007.6 |
| 20260505124505 | 67 | 172 | 1.0 | 5.0 | 0.00 | 0.00 | 0.00 | 68 | 1007.7 |
| 20260505123603 | 66 | 213 | 2.0 | 6.0 | 0.00 | 0.00 | 0.00 | 67 | 1007.5 |
| 20260505123005 | 65 | 212 | 1.0 | 6.0 | 0.00 | 0.00 | 0.00 | 70 | 1007.6 |
| 20260505122918 | 66 | 210 | 2.0 | 7.0 | 0.00 | 0.00 | 0.00 | 69 | 1007.4 |
| 20260505122018 | 65 | 211 | 1.0 | 4.0 | 0.00 | 0.00 | 0.00 | 71 | 1007.5 |
| 20260505121509 | 64 | 223 | 0.0 | 4.0 | 0.00 | 0.00 | 0.00 | 73 | 1007.7 |
| 20260505120903 | 64 | 221 | 1.0 | 4.0 | 0.00 | 0.00 | 0.00 | 72 | 1007.6 |
| 20260505120008 | 63 | 154 | 0.0 | 2.0 | 0.00 | 0.00 | 0.00 | 75 | 1007.7 |
| 20260505120004 | 63 | 202 | 0.0 | 2.0 | 0.00 | 0.00 | 0.00 | 75 | 1007.6 |
| 20260505115403 | 63 | 205 | 0.0 | 1.0 | 0.00 | 0.00 | 0.00 | 74 | 1007.7 |
| 20260505114515 | 62 | 154 | 0.0 | 1.0 | 0.00 | 0.00 | 0.00 | 78 | 1007.7 |
| 20260505114503 | 62 | 241 | 0.0 | 1.0 | 0.00 | 0.00 | 0.00 | 78 | 1007.6 |
| 20260505113603 | 61 | 0 | 0.0 | 0.0 | 0.00 | 0.00 | 0.00 | 78 | 1007.6 |
| 20260505113012 | 60 | 151 | 0.0 | 0.0 | 0.00 | 0.00 | 0.00 | 80 | 1007.6 |
| 20260505112703 | 60 | 0 | 0.0 | 0.0 | 0.00 | 0.00 | 0.00 | 81 | 1007.4 |
| 20260505111803 | 59 | 0 | 0.0 | 0.0 | 0.00 | 0.00 | 0.00 | 84 | 1007.6 |
| 20260505111510 | 58 | 152 | 0.0 | 0.0 | 0.00 | 0.00 | 0.00 | 84 | 1007.6 |
| 20260505110903 | 57 | 0 | 0.0 | 0.0 | 0.00 | 0.00 | 0.00 | 85 | 1007.5 |
| 20260505101803 | 56 | 0 | 0.0 | 0.0 | 0.00 | 0.00 | 0.00 | 83 | 1007.5 |
| 20260505101508 | 56 | 151 | 0.0 | 0.0 | 0.00 | 0.00 | 0.00 | 83 | 1007.7 |
| 20260505100903 | 56 | 171 | 0.0 | 1.0 | 0.00 | 0.00 | 0.00 | 83 | 1007.5 |
| 20260505100010 | 55 | 31 | 0.0 | 1.0 | 0.00 | 0.00 | 0.00 | 83 | 1007.6 |
| 20260505100003 | 56 | 303 | 0.0 | 1.0 | 0.00 | 0.00 | 0.00 | 83 | 1007.5 |
| 20260505095403 | 56 | 223 | 0.0 | 1.0 | 0.00 | 0.00 | 0.00 | 83 | 1007.4 |
| 20260505094510 | 55 | 223 | 0.0 | 1.0 | 0.00 | 0.00 | 0.00 | 83 | 1007.3 |
| 20260505094503 | 56 | 213 | 0.0 | 1.0 | 0.00 | 0.00 | 0.00 | 83 | 1007.2 |
| 20260505093603 | 56 | 217 | 0.0 | 4.0 | 0.00 | 0.00 | 0.00 | 83 | 1006.9 |
| 20260505093010 | 55 | 232 | 0.0 | 2.0 | 0.00 | 0.00 | 0.00 | 83 | 1007.0 |
| 20260505092917 | 55 | 225 | 0.0 | 2.0 | 0.00 | 0.00 | 0.00 | 83 | 1006.9 |
| 20260505091803 | 55 | 217 | 0.0 | 4.0 | 0.00 | 0.00 | 0.00 | 83 | 1006.7 |
| 20260505091506 | 55 | 202 | 0.0 | 3.0 | 0.00 | 0.00 | 0.00 | 82 | 1006.8 |
| 20260505091118 | 56 | 215 | 0.0 | 2.0 | 0.00 | 0.00 | 0.00 | 82 | 1006.7 |
| 20260505090007 | 56 | 230 | 0.0 | 1.0 | 0.00 | 0.00 | 0.00 | 81 | 1006.7 |
| 20260505090004 | 56 | 230 | 0.0 | 1.0 | 0.00 | 0.00 | 0.00 | 81 | 1006.6 |
| 20260505085403 | 56 | 207 | 0.0 | 1.0 | 0.00 | 0.00 | 0.00 | 81 | 1006.6 |
| 20260505084510 | 56 | 199 | 0.0 | 1.0 | 0.00 | 0.00 | 0.00 | 81 | 1006.7 |
| 20260505084503 | 57 | 212 | 0.0 | 1.0 | 0.00 | 0.00 | 0.00 | 81 | 1006.6 |
| 20260505083603 | 57 | 213 | 0.0 | 3.0 | 0.00 | 0.00 | 0.00 | 81 | 1006.7 |
| 20260505083010 | 56 | 257 | 0.0 | 3.0 | 0.00 | 0.00 | 0.00 | 81 | 1006.8 |
| 20260505082703 | 56 | 199 | 1.0 | 3.0 | 0.00 | 0.00 | 0.00 | 82 | 1006.7 |
| 20260505081803 | 56 | 194 | 1.0 | 3.0 | 0.00 | 0.00 | 0.00 | 82 | 1006.7 |
| 20260505081504 | 56 | 205 | 0.0 | 4.0 | 0.00 | 0.00 | 0.00 | 82 | 1006.7 |
| 20260505080903 | 56 | 194 | 2.0 | 4.0 | 0.00 | 0.00 | 0.00 | 82 | 1006.6 |
| 20260505080009 | 56 | 217 | 1.0 | 3.0 | 0.00 | 0.00 | 0.00 | 81 | 1006.6 |
| 20260505080003 | 56 | 186 | 1.0 | 4.0 | 0.00 | 0.00 | 0.00 | 81 | 1006.5 |
| 20260505075616 | 56 | 193 | 0.0 | 4.0 | 0.00 | 0.00 | 0.00 | 81 | 1006.6 |
| 20260505074511 | 55 | 208 | 0.0 | 2.0 | 0.00 | 0.00 | 0.00 | 81 | 1006.7 |
| 20260505074503 | 56 | 204 | 0.0 | 2.0 | 0.00 | 0.00 | 0.00 | 81 | 1006.6 |
| 20260505073817 | 56 | 215 | 0.0 | 3.0 | 0.00 | 0.00 | 0.00 | 81 | 1006.6 |
| 20260505073109 | 55 | 175 | 0.0 | 4.0 | 0.00 | 0.00 | 0.00 | 81 | 1006.7 |
| 20260505072703 | 56 | 213 | 0.0 | 4.0 | 0.00 | 0.00 | 0.00 | 81 | 1006.6 |
| 20260505071803 | 56 | 210 | 0.0 | 4.0 | 0.00 | 0.00 | 0.00 | 81 | 1006.5 |
| 20260505071517 | 55 | 207 | 0.0 | 4.0 | 0.00 | 0.00 | 0.00 | 82 | 1006.6 |
| 20260505070903 | 56 | 191 | 0.0 | 3.0 | 0.00 | 0.00 | 0.00 | 81 | 1006.6 |
| 20260505070011 | 55 | 158 | 0.0 | 1.0 | 0.00 | 0.00 | 0.00 | 82 | 1006.6 |
| 20260505070003 | 56 | 156 | 0.0 | 1.0 | 0.00 | 0.00 | 0.00 | 82 | 1006.5 |
| 20260505065403 | 56 | 206 | 0.0 | 2.0 | 0.00 | 0.00 | 0.00 | 82 | 1006.4 |
| 20260505064505 | 55 | 215 | 0.0 | 1.0 | 0.00 | 0.00 | 0.00 | 82 | 1006.6 |
| 20260505064503 | 55 | 219 | 0.0 | 1.0 | 0.00 | 0.00 | 0.00 | 82 | 1006.5 |
| 20260505063604 | 56 | 225 | 0.0 | 3.0 | 0.00 | 0.00 | 0.00 | 82 | 1006.5 |
| 20260505063007 | 55 | 209 | 0.0 | 2.0 | 0.00 | 0.00 | 0.00 | 81 | 1006.6 |
| 20260505062703 | 56 | 220 | 0.0 | 2.0 | 0.00 | 0.00 | 0.00 | 81 | 1006.5 |
| 20260505061803 | 56 | 228 | 0.0 | 2.0 | 0.00 | 0.00 | 0.00 | 81 | 1006.5 |
| 20260505061523 | 55 | 213 | 0.0 | 1.0 | 0.00 | 0.00 | 0.00 | 81 | 1006.6 |
| 20260505060903 | 56 | 231 | 0.0 | 4.0 | 0.00 | 0.00 | 0.00 | 81 | 1006.5 |
| 20260505060003 | 56 | 214 | 0.0 | 2.0 | 0.00 | 0.00 | 0.00 | 81 | 1006.5 |
| 20260505055403 | 56 | 210 | 0.0 | 4.0 | 0.00 | 0.00 | 0.00 | 81 | 1006.5 |
| 20260505054508 | 55 | 151 | 0.0 | 3.0 | 0.00 | 0.00 | 0.00 | 81 | 1006.7 |
| 20260505054503 | 56 | 210 | 0.0 | 3.0 | 0.00 | 0.00 | 0.00 | 81 | 1006.6 |
| 20260505053603 | 56 | 0 | 0.0 | 0.0 | 0.00 | 0.00 | 0.00 | 81 | 1006.6 |
| 20260505053006 | 55 | 185 | 0.0 | 2.0 | 0.00 | 0.00 | 0.00 | 80 | 1006.8 |
| 20260505052703 | 56 | 194 | 0.0 | 2.0 | 0.00 | 0.00 | 0.00 | 80 | 1006.7 |
| 20260505051803 | 56 | 202 | 0.0 | 2.0 | 0.00 | 0.00 | 0.00 | 81 | 1006.7 |
| 20260505051511 | 55 | 205 | 0.0 | 2.0 | 0.00 | 0.00 | 0.00 | 81 | 1006.8 |
| 20260505050903 | 56 | 211 | 0.0 | 1.0 | 0.00 | 0.00 | 0.00 | 80 | 1006.8 |
| 20260505041504 | 56 | 230 | 0.0 | 2.0 | 0.00 | 0.00 | 0.00 | 78 | 1007.0 |
| 20260505040903 | 56 | 0 | 0.0 | 0.0 | 0.00 | 0.00 | 0.00 | 79 | 1006.8 |
| 20260505040005 | 54 | 212 | 0.0 | 0.0 | 0.00 | 0.00 | 0.00 | 79 | 1006.9 |
| 20260505035403 | 54 | 0 | 0.0 | 0.0 | 0.00 | 0.00 | 0.00 | 79 | 1006.8 |
| 20260505034509 | 52 | 208 | 0.0 | 0.0 | 0.00 | 0.00 | 0.00 | 79 | 1007.0 |
| 20260505034503 | 52 | 0 | 0.0 | 0.0 | 0.00 | 0.00 | 0.00 | 79 | 1006.9 |
| 20260505033603 | 52 | 0 | 0.0 | 0.0 | 0.00 | 0.00 | 0.00 | 76 | 1006.9 |
| 20260505033026 | 51 | 337 | 0.0 | 0.0 | 0.00 | 0.00 | 0.00 | 75 | 1007.0 |
| 20260505032703 | 52 | 0 | 0.0 | 0.0 | 0.00 | 0.00 | 0.00 | 74 | 1007.0 |
| 20260505031803 | 52 | 0 | 0.0 | 0.0 | 0.00 | 0.00 | 0.00 | 74 | 1007.0 |
| 20260505031505 | 52 | 336 | 0.0 | 0.0 | 0.00 | 0.00 | 0.00 | 74 | 1007.1 |
| 20260505031118 | 52 | 0 | 0.0 | 0.0 | 0.00 | 0.00 | 0.00 | 74 | 1007.0 |
| 20260505030010 | 52 | 336 | 0.0 | 0.0 | 0.00 | 0.00 | 0.00 | 72 | 1007.1 |
| 20260505030003 | 52 | 0 | 0.0 | 0.0 | 0.00 | 0.00 | 0.00 | 72 | 1007.0 |
| 20260505025403 | 53 | 0 | 0.0 | 0.0 | 0.00 | 0.00 | 0.00 | 70 | 1007.1 |
| 20260505024508 | 53 | 337 | 0.0 | 0.0 | 0.00 | 0.00 | 0.00 | 70 | 1007.2 |
| 20260505024503 | 54 | 0 | 0.0 | 0.0 | 0.00 | 0.00 | 0.00 | 70 | 1007.1 |
| 20260505023603 | 54 | 0 | 0.0 | 0.0 | 0.00 | 0.00 | 0.00 | 68 | 1007.1 |
| 20260505023003 | 54 | 337 | 0.0 | 0.0 | 0.00 | 0.00 | 0.00 | 69 | 1007.2 |
| 20260505022703 | 54 | 0 | 0.0 | 0.0 | 0.00 | 0.00 | 0.00 | 69 | 1007.2 |
| 20260505021803 | 54 | 0 | 0.0 | 0.0 | 0.00 | 0.00 | 0.00 | 70 | 1007.2 |
| 20260505021523 | 54 | 336 | 0.0 | 0.0 | 0.00 | 0.00 | 0.00 | 69 | 1007.4 |
| 20260505020903 | 55 | 0 | 0.0 | 0.0 | 0.00 | 0.00 | 0.00 | 69 | 1007.3 |
| 20260505020011 | 54 | 299 | 0.0 | 0.0 | 0.00 | 0.00 | 0.00 | 68 | 1007.5 |
| 20260505020003 | 54 | 0 | 0.0 | 0.0 | 0.00 | 0.00 | 0.00 | 68 | 1007.3 |
| 20260505015403 | 54 | 0 | 0.0 | 0.0 | 0.00 | 0.00 | 0.00 | 68 | 1007.2 |
| 20260505014503 | 54 | 0 | 0.0 | 0.0 | 0.00 | 0.00 | 0.00 | 67 | 1007.2 |
| 20260505013603 | 55 | 0 | 0.0 | 0.0 | 0.00 | 0.00 | 0.00 | 65 | 1007.1 |
| 20260505013007 | 55 | 223 | 0.0 | 0.0 | 0.00 | 0.00 | 0.00 | 64 | 1007.1 |
| 20260505012703 | 56 | 0 | 0.0 | 0.0 | 0.00 | 0.00 | 0.00 | 64 | 1006.9 |
| 20260505011803 | 56 | 0 | 0.0 | 0.0 | 0.00 | 0.00 | 0.00 | 61 | 1006.8 |
| 20260505011508 | 56 | 223 | 0.0 | 0.0 | 0.00 | 0.00 | 0.00 | 60 | 1006.9 |
| 20260505010903 | 57 | 0 | 0.0 | 0.0 | 0.00 | 0.00 | 0.00 | 59 | 1006.8 |
| 20260505010010 | 58 | 223 | 0.0 | 0.0 | 0.00 | 0.00 | 0.00 | 58 | 1006.7 |
| 20260505010004 | 58 | 0 | 0.0 | 0.0 | 0.00 | 0.00 | 0.00 | 58 | 1006.6 |
| 20260505005403 | 58 | 0 | 0.0 | 0.0 | 0.00 | 0.00 | 0.00 | 57 | 1006.5 |
| 20260505004511 | 59 | 223 | 0.0 | 0.0 | 0.00 | 0.00 | 0.00 | 55 | 1006.6 |
| 20260505004503 | 59 | 0 | 0.0 | 0.0 | 0.00 | 0.00 | 0.00 | 55 | 1006.5 |
| 20260505003603 | 61 | 0 | 0.0 | 0.0 | 0.00 | 0.00 | 0.00 | 54 | 1006.4 |
| 20260505003008 | 61 | 223 | 0.0 | 0.0 | 0.00 | 0.00 | 0.00 | 54 | 1006.5 |
| 20260505002703 | 61 | 0 | 0.0 | 0.0 | 0.00 | 0.00 | 0.00 | 54 | 1006.3 |
| 20260505001803 | 63 | 0 | 0.0 | 0.0 | 0.00 | 0.00 | 0.00 | 50 | 1006.3 |
| 20260505001507 | 63 | 223 | 0.0 | 0.0 | 0.00 | 0.00 | 0.00 | 50 | 1006.4 |
| 20260505001116 | 64 | 0 | 0.0 | 0.0 | 0.00 | 0.00 | 0.00 | 49 | 1006.3 |
| 20260505000011 | 65 | 192 | 0.0 | 0.0 | 0.00 | 0.00 | 0.00 | 48 | 1006.2 |
| 20260505000003 | 65 | 0 | 0.0 | 0.0 | 0.00 | 0.00 | 0.00 | 48 | 1006.1 |
| 20260504235403 | 66 | 0 | 0.0 | 0.0 | 0.00 | 0.00 | 0.00 | 47 | 1006.0 |
| 20260504234505 | 66 | 165 | 0.0 | 1.0 | 0.00 | 0.00 | 0.00 | 46 | 1006.0 |
| 20260504234503 | 67 | 183 | 0.0 | 1.0 | 0.00 | 0.00 | 0.00 | 46 | 1005.9 |
| 20260504233603 | 68 | 194 | 1.0 | 4.0 | 0.00 | 0.00 | 0.00 | 44 | 1005.8 |
| 20260504233008 | 68 | 201 | 1.0 | 4.0 | 0.00 | 0.00 | 0.00 | 43 | 1005.8 |
| 20260504232703 | 68 | 217 | 1.0 | 4.0 | 0.00 | 0.00 | 0.00 | 44 | 1005.7 |
| 20260504231803 | 69 | 208 | 2.0 | 7.0 | 0.00 | 0.00 | 0.00 | 43 | 1005.7 |
| 20260504231509 | 69 | 223 | 2.0 | 7.0 | 0.00 | 0.00 | 0.00 | 42 | 1005.8 |
| 20260504230903 | 69 | 218 | 1.0 | 10.0 | 0.00 | 0.00 | 0.00 | 42 | 1005.6 |
| 20260504230111 | 69 | 230 | 0.0 | 8.0 | 0.00 | 0.00 | 0.00 | 41 | 1005.7 |
| 20260504230003 | 70 | 222 | 3.0 | 11.0 | 0.00 | 0.00 | 0.00 | 41 | 1005.6 |
| 20260504225403 | 70 | 212 | 2.0 | 11.0 | 0.00 | 0.00 | 0.00 | 40 | 1005.5 |
| 20260504224508 | 70 | 218 | 1.0 | 5.0 | 0.00 | 0.00 | 0.00 | 40 | 1005.6 |
| 20260504224503 | 71 | 220 | 2.0 | 5.0 | 0.00 | 0.00 | 0.00 | 40 | 1005.5 |
| 20260504223603 | 71 | 225 | 2.0 | 7.0 | 0.00 | 0.00 | 0.00 | 40 | 1005.6 |
| 20260504223009 | 71 | 255 | 1.0 | 6.0 | 0.00 | 0.00 | 0.00 | 39 | 1005.8 |
| 20260504222703 | 72 | 197 | 2.0 | 6.0 | 0.00 | 0.00 | 0.00 | 39 | 1005.6 |
| 20260504221803 | 72 | 209 | 2.0 | 5.0 | 0.00 | 0.00 | 0.00 | 39 | 1005.6 |
| 20260504221512 | 72 | 206 | 1.0 | 5.0 | 0.00 | 0.00 | 0.00 | 38 | 1005.7 |
| 20260504220903 | 73 | 212 | 2.0 | 7.0 | 0.00 | 0.00 | 0.00 | 37 | 1005.6 |
| 20260504220004 | 73 | 160 | 2.0 | 13.0 | 0.00 | 0.00 | 0.00 | 36 | 1005.8 |
| 20260504215403 | 73 | 229 | 3.0 | 14.0 | 0.00 | 0.00 | 0.00 | 36 | 1005.7 |
| 20260504214508 | 73 | 223 | 2.0 | 7.0 | 0.00 | 0.00 | 0.00 | 38 | 1005.9 |
| 20260504214503 | 74 | 201 | 2.0 | 7.0 | 0.00 | 0.00 | 0.00 | 38 | 1005.7 |
| 20260504213603 | 74 | 209 | 3.0 | 8.0 | 0.00 | 0.00 | 0.00 | 37 | 1005.8 |
| 20260504213013 | 73 | 201 | 2.0 | 10.0 | 0.00 | 0.00 | 0.00 | 37 | 1005.9 |
| 20260504212916 | 74 | 219 | 3.0 | 9.0 | 0.00 | 0.00 | 0.00 | 36 | 1005.8 |
| 20260504211803 | 74 | 220 | 3.0 | 8.0 | 0.00 | 0.00 | 0.00 | 37 | 1005.9 |
| 20260504211504 | 74 | 175 | 3.0 | 6.0 | 0.00 | 0.00 | 0.00 | 37 | 1006.0 |
| 20260504210903 | 74 | 229 | 2.0 | 5.0 | 0.00 | 0.00 | 0.00 | 36 | 1005.9 |
| 20260504210008 | 73 | 175 | 0.0 | 7.0 | 0.00 | 0.00 | 0.00 | 36 | 1006.2 |
| 20260504210003 | 74 | 231 | 2.0 | 8.0 | 0.00 | 0.00 | 0.00 | 36 | 1006.1 |
| 20260504205403 | 74 | 236 | 3.0 | 9.0 | 0.00 | 0.00 | 0.00 | 34 | 1006.0 |
| 20260504204517 | 75 | 255 | 3.0 | 8.0 | 0.00 | 0.00 | 0.00 | 34 | 1006.2 |
| 20260504204503 | 75 | 220 | 2.0 | 8.0 | 0.00 | 0.00 | 0.00 | 34 | 1006.0 |
| 20260504203603 | 75 | 221 | 2.0 | 9.0 | 0.00 | 0.00 | 0.00 | 35 | 1005.9 |
| 20260504203003 | 74 | 206 | 2.0 | 8.0 | 0.00 | 0.00 | 0.00 | 38 | 1006.1 |
| 20260504202703 | 74 | 253 | 2.0 | 8.0 | 0.00 | 0.00 | 0.00 | 34 | 1005.9 |
| 20260504201803 | 75 | 226 | 3.0 | 11.0 | 0.00 | 0.00 | 0.00 | 35 | 1006.0 |
| 20260504201505 | 74 | 194 | 2.0 | 10.0 | 0.00 | 0.00 | 0.00 | 37 | 1006.2 |
| 20260504200903 | 75 | 217 | 2.0 | 7.0 | 0.00 | 0.00 | 0.00 | 36 | 1006.0 |
| 20260504200008 | 74 | 272 | 1.0 | 7.0 | 0.00 | 0.00 | 0.00 | 37 | 1006.2 |
| 20260504200003 | 74 | 206 | 3.0 | 13.0 | 0.00 | 0.00 | 0.00 | 37 | 1006.0 |
| 20260504195403 | 74 | 213 | 4.0 | 13.0 | 0.00 | 0.00 | 0.00 | 35 | 1006.1 |
| 20260504194512 | 74 | 182 | 3.0 | 12.0 | 0.00 | 0.00 | 0.00 | 37 | 1006.3 |
| 20260504194503 | 74 | 217 | 4.0 | 13.0 | 0.00 | 0.00 | 0.00 | 37 | 1006.2 |
| 20260504193603 | 74 | 226 | 3.0 | 12.0 | 0.00 | 0.00 | 0.00 | 34 | 1006.3 |
| 20260504193004 | 74 | 240 | 2.0 | 11.0 | 0.00 | 0.00 | 0.00 | 36 | 1006.4 |
| 20260504192703 | 74 | 217 | 4.0 | 11.0 | 0.00 | 0.00 | 0.00 | 38 | 1006.4 |
| 20260504191803 | 74 | 228 | 3.0 | 9.0 | 0.00 | 0.00 | 0.00 | 36 | 1006.5 |
| 20260504191509 | 74 | 201 | 3.0 | 8.0 | 0.00 | 0.00 | 0.00 | 37 | 1006.6 |
| 20260504190903 | 74 | 205 | 3.0 | 8.0 | 0.00 | 0.00 | 0.00 | 37 | 1006.6 |
| 20260504190008 | 74 | 154 | 4.0 | 8.0 | 0.00 | 0.00 | 0.00 | 36 | 1006.9 |
| 20260504190003 | 74 | 215 | 3.0 | 9.0 | 0.00 | 0.00 | 0.00 | 36 | 1006.8 |
| 20260504185403 | 74 | 220 | 2.0 | 6.0 | 0.00 | 0.00 | 0.00 | 40 | 1006.7 |
| 20260504184513 | 73 | 243 | 2.0 | 8.0 | 0.00 | 0.00 | 0.00 | 35 | 1007.1 |
| 20260504184503 | 73 | 244 | 4.0 | 10.0 | 0.00 | 0.00 | 0.00 | 35 | 1007.0 |
| 20260504183818 | 73 | 215 | 4.0 | 10.0 | 0.00 | 0.00 | 0.00 | 36 | 1007.0 |
| 20260504183012 | 72 | 150 | 4.0 | 12.0 | 0.00 | 0.00 | 0.00 | 38 | 1007.2 |
| 20260504182703 | 74 | 206 | 4.0 | 12.0 | 0.00 | 0.00 | 0.00 | 36 | 1007.2 |